This is the latest recevied weather packets stored in our database for station/object SP1BMW-13. If no packets are shown the sender has not sent any weather packets the latest 10 day(s).
| Time | Temp. | Humidity | Pressure | Rain* | Wind** | Luminosity | Snow |
|---|---|---|---|---|---|---|---|
| 1787500021 | 20° C | 56% | 1017.2 hPa | 0 mm | 0.45 m/s, 233° | 246 W/m² | - |
| 1787499961 | 20° C | 56% | 1017.5 hPa | 0 mm | 0 m/s | 223 W/m² | - |
| 1787499901 | 19.44° C | 56% | 1017.4 hPa | 0 mm | 0.45 m/s, 271° | 193 W/m² | - |
| 1787499841 | 19.44° C | 55% | 1017.4 hPa | 0 mm | 0.89 m/s, 276° | 263 W/m² | - |
| 1787499781 | 19.44° C | 56% | 1017.5 hPa | 0 mm | 1.79 m/s, 241° | 276 W/m² | - |
| 1787499721 | 18.89° C | 59% | 1017.4 hPa | 0 mm | 0 m/s | 279 W/m² | - |
| 1787499661 | 18.89° C | 59% | 1017.5 hPa | 0 mm | 0.45 m/s, 92° | 316 W/m² | - |
| 1787499601 | 18.89° C | 59% | 1017.4 hPa | 0 mm | 0.45 m/s, 251° | 163 W/m² | - |
| 1787499541 | 18.89° C | 58% | 1017.5 hPa | 0 mm | 0.89 m/s, 305° | 302 W/m² | - |
| 1787499481 | 18.89° C | 59% | 1017.4 hPa | 0 mm | 0.89 m/s, 294° | 203 W/m² | - |
| 1787499421 | 18.33° C | 60% | 1017.3 hPa | 0 mm | 0.45 m/s, 299° | 345 W/m² | - |
| 1787499361 | 18.33° C | 61% | 1017.5 hPa | 0 mm | 0 m/s | 297 W/m² | - |
| 1787499301 | 18.33° C | 62% | 1017.4 hPa | 0 mm | 0 m/s | 194 W/m² | - |
| 1787499241 | 18.33° C | 61% | 1017.6 hPa | 0 mm | 0 m/s | 186 W/m² | - |
| 1787499181 | 18.33° C | 61% | 1017.2 hPa | 0 mm | 0.89 m/s, 258° | 186 W/m² | - |
| 1787499121 | 18.33° C | 61% | 1017.5 hPa | 0 mm | 0.89 m/s, 224° | 186 W/m² | - |
| 1787499061 | 18.33° C | 62% | 1017.3 hPa | 0 mm | 0.45 m/s, 279° | 179 W/m² | - |
| 1787499001 | 18.33° C | 61% | 1017.3 hPa | 0 mm | 0.89 m/s, 297° | 175 W/m² | - |
| 1787498941 | 18.33° C | 61% | 1017.4 hPa | 0 mm | 0.45 m/s, 234° | 173 W/m² | - |
| 1787498881 | 18.33° C | 62% | 1017.6 hPa | 0 mm | 0.45 m/s, 273° | 172 W/m² | - |
| 1787498821 | 17.78° C | 61% | 1017.3 hPa | 0 mm | 0.89 m/s, 258° | 161 W/m² | - |
| 1787498761 | 17.78° C | 61% | 1017.3 hPa | 0 mm | 0.45 m/s, 202° | 153 W/m² | - |
| 1787498701 | 17.78° C | 61% | 1017.4 hPa | 0 mm | 0.45 m/s, 296° | 158 W/m² | - |
| 1787498641 | 17.78° C | 61% | 1017.4 hPa | 0 mm | 1.34 m/s, 316° | 131 W/m² | - |
| 1787498581 | 17.78° C | 62% | 1017.4 hPa | 0 mm | 0.45 m/s, 259° | 119 W/m² | - |
* Rain latest hour (hover to see other rain measurements)
** Current wind speed in m/s (hover to see current wind gust speed)